[Iaude] MPEC L37: 2024 JS29 [a=2.50,e=0.50,i=8.2,H=22.0]

mpec at cfa.harvard.edu mpec at cfa.harvard.edu
Mon Jun 3 23:28:25 EDT 2024


M.P.E.C. 2024-L37                                  Issued 2024 June 4, 03:27 UT

     The Minor Planet Electronic Circulars contain information on unusual
         minor planets, routine data on comets and natural satellites,
         and occasional editorial announcements.  They are published
    on behalf of Division F of the International Astronomical Union by the
          Minor Planet Center, Smithsonian Astrophysical Observatory,
                          Cambridge, MA 02138, U.S.A.
			  
             Prepared using the Tamkin Foundation Computer Network

                              MPC at CFA.HARVARD.EDU
            URL https://www.minorplanetcenter.net/    ISSN 1523-6714

                                   2024 JS29                                    


Observations:
     K24J29S* C2024 05 01.32011512 55 03.268-24 47 09.72         21.54wXEL037F51
     K24J29S  C2024 05 01.34294612 55 02.788-24 46 51.71         21.59wXEL037F51
     K24J29S  C2024 05 01.35420012 55 02.559-24 46 42.96         21.75wXEL037F51
     K24J29S  C2024 05 02.32426312 54 53.091-24 33 45.74         21.44GVEL037F51
     K24J29S  C2024 05 02.34635412 54 52.688-24 33 28.10         21.26GVEL037F51
     K24J29S  C2024 05 31.26891413 16 16.232-16 26 58.17         21.03GVEL037F51
     K24J29S  C2024 05 31.28060913 16 17.335-16 26 45.70         21.15GVEL037F51
     K24J29S  C2024 05 31.29231913 16 18.445-16 26 33.78         21.68GVEL037F51
     K24J29S  C2024 05 31.30403913 16 19.536-16 26 21.49         21.86GVEL037F51
     K24J29S  C2024 06 01.27303213 18 03.640-16 09 38.69         21.88wXEL037F51
     K24J29S  C2024 06 01.28469913 18 04.777-16 09 26.89         21.79wXEL037F51
     K24J29S  C2024 06 01.29634813 18 05.921-16 09 14.86         20.94wXEL037F51
     K24J29S  C2024 06 01.30799013 18 07.080-16 09 03.00         21.88wXEL037F51
     K24J29S KC2024 06 02.20689 13 19 46.92 -15 53 43.6          21.2 RVEL037691
     K24J29S KC2024 06 02.22175 13 19 48.45 -15 53 28.1          21.5 RVEL037691
     K24J29S KC2024 06 02.23662 13 19 49.98 -15 53 12.7          20.7 RVEL037691
     K24J29S KC2024 06 03.21032 13 21 42.53 -15 36 43.2          22.2 RVEL037691
     K24J29S KC2024 06 03.21805 13 21 43.34 -15 36 36.0                VEL037691
     K24J29S KC2024 06 03.22351213 21 43.859-15 36 30.82         22.01GVEL037I52
     K24J29S KC2024 06 03.22577 13 21 44.17 -15 36 28.1          21.5 RVEL037691
     K24J29S KC2024 06 03.22815913 21 44.446-15 36 26.17         21.68GVEL037I52
     K24J29S KC2024 06 03.23280313 21 44.924-15 36 21.06         21.89GVEL037I52
     K24J29S KC2024 06 03.23744413 21 45.436-15 36 14.51         21.21GVEL037I52
     K24J29S KC2024 06 03.37150113 22 02.004-15 33 29.45         21.4 GVEL037474
     K24J29S KC2024 06 03.37862513 22 02.803-15 33 22.46         21.5 GVEL037474
     K24J29S KC2024 06 03.38575013 22 03.540-15 33 15.59         21.6 GVEL037474

Observer details:
474 Mount John Observatory, Lake Tekapo.  Observers A. C. Gilmore, P. M.
    Kilmartin.  Measurer P. M. Kilmartin.  1.0-m f/7.7 Reflector + CCD.
691 Steward Observatory, Kitt Peak-Spacewatch.  Observers J. V. Scotti, T. H.
    Bressi.  0.9-m f/3 reflector + CCD.
F51 Pan-STARRS 1, Haleakala.  Observers J. Herman, T. Lowe, P. Minguez, A.
    Schultz, I. Smith.  Measurers K. Chambers, T. de Boer, J. Fairlamb, H.
    Gao, M. Huber, C.-C. Lin, E. Magnier, Y. Ramanjooloo, R. Wainscoat, R.
    Weryk.  1.8-m Ritchey-Chretien + CCD.
I52 Steward Observatory, Mt. Lemmon Station.  Observer K. W. Wierzchos.
    Measurers T. Beuden, V. F. Carvajal, D. Fay, J. B. Fazekas, D. C. Fuls, A.
    R. Gibbs, A. D. Grauer, H. Groeller, J. K. Hogan, R. A. Kowalski, S. M.
    Larson, G. J. Leonard, D. Rankin, R. L. Seaman, F. C. Shelly, K. W.
    Wierzchos.  1.0-m prime focus + CCD.

Orbital elements:
2024 JS29                                                Earth MOID = 0.2232 AU
Epoch 2024 Mar. 31.0 TT = JDT 2460400.5                 Veres                   
M 337.85025              (2000.0)            P               Q                  
n   0.24970361     Peri.    8.81589     -0.13419305     +0.98157105             
a   2.4975805      Node   253.55808     -0.91761269     -0.17492057             
e   0.5044738      Incl.    8.15515     -0.37413791     +0.07694844             
P   3.95           H   22.08          G   0.15           U   6                  
Residuals in seconds of arc
240501 F51  0.1+  0.2-    240601 F51  0.1+  0.1+    240603 I52 (1.0-  0.5-)
240501 F51  0.1-  0.1+    240601 F51  0.1-  0.1-    240603 691  0.3-  0.3-
240501 F51  0.0   0.0     240601 F51  0.2-  0.0     240603 I52  0.2+  0.7-
240502 F51  0.0   0.1+    240601 F51  0.0   0.2-    240603 I52  0.2-  0.3-
240502 F51  0.0   0.0     240602 691  0.8+  0.4+    240603 I52  0.1-  1.5+
240531 F51  0.1+  0.2-    240602 691  0.5+  0.5+    240603 474  0.0   0.3+
240531 F51  0.0   0.2+    240602 691  0.2+  0.5+    240603 474  0.2+  0.1+
240531 F51  0.1+  0.0     240603 691  0.2+  0.4+    240603 474  0.5-  0.2-
240531 F51  0.1-  0.1+    240603 691  0.2-  0.3-

Ephemeris:
2024 JS29                a,e,i = 2.50, 0.50, 8                   q = 1.2376
Date    TT    R. A. (2000) Decl.     Delta      r    Elong.  Phase     V
2024 05 05    12 54 39.3 -23 55 47   0.3910  1.3666   152.2    20.1    21.7
...
2024 05 20    13 01 08.6 -19 46 29   0.3556  1.3073   140.9    29.2    21.7
...
2024 05 28    13 10 56.1 -17 23 57   0.3451  1.2822   135.4    33.7    21.7
...
2024 06 03    13 21 18.2 -15 39 59   0.3406  1.2668   131.7    36.7    21.7
2024 06 04    13 23 16.9 -15 23 10   0.3401  1.2645   131.2    37.2    21.8
2024 06 05    13 25 19.8 -15 06 33   0.3397  1.2623   130.6    37.6    21.8
...
2024 06 11    13 39 03.4 -13 31 36   0.3388  1.2511   127.6    40.0    21.8
...
2024 06 19    14 00 53.4 -11 40 11   0.3419  1.2413   124.3    42.5    21.9
...
2024 07 04    14 50 02.2 -09 05 54   0.3615  1.2395   120.4    45.0    22.1

M. P. C. Staff               (C) Copyright 2024 MPC           M.P.E.C. 2024-L37





More information about the Iaude mailing list